Regional Weather Roundup
Issued by NWS

Home | Current Version | Previous Version | Graphics & Text | Print | Product List | Glossary On
Versions: 1 2 3 4 5 6 7 8 9 10 11 12 13 14 15 16 17 18 19 20 21 22 23 24 25 26 27 28 29 30 31 32 33 34 35 36 37 38 39 40 41 42 43 44 45 46 47 48 49 50
000
ASUS43 KDMX 260407
RWRIA

WEATHER ROUNDUP FOR IOWA
NATIONAL WEATHER SERVICE DES MOINES IA
1100 PM CDT SAT APR 25 2015

NOTE: "FAIR" INDICATES FEW OR NO CLOUDS BELOW 12,000 FEET WITH NO
SIGNIFICANT WEATHER AND/OR OBSTRUCTIONS TO VISIBILITY.

* - THESE STATIONS ARE NOT NWS STATIONS...THUS NOT UNDER NWS
QUALITY CONTROL.  THEY ALSO DO NOT REPORT WEATHER SUCH
AS PRECIPITATION OR FOG.

IAZ001>003-012>014-020>022-031>034-043>046-260500-
   NORTHWEST IOWA

CITY           SKY/WX    TMP DP  RH WIND       PRES   REMARKS
CARROLL *      CLOUDY    48  41  76 E10       29.90R
CHEROKEE *     CLOUDY    50  41  71 E7        29.92R
DENISON *      CLOUDY    48  45  87 NE9       29.88S
LE MARS *      CLOUDY    52  43  71 E7        29.92S
ORANGE CITY *  CLOUDY    48  41  76 E7        29.92S
SHELDON *      PTCLDY    46  39  76 E8        29.92R
SIOUX CITY     CLOUDY    54  40  59 E13       29.91R
SPENCER        MOCLDY    48  38  68 E8        29.93R
STORM LAKE *   CLOUDY    48  39  71 E12       29.92S
$$

IAZ055>058-069>071-079>083-090>094-260500-
   SOUTHWEST IOWA

CITY           SKY/WX    TMP DP  RH WIND       PRES   REMARKS
ATLANTIC *     CLOUDY    48  43  81 NE10      29.87S
AUDUBON *      PTCLDY    46  43  87 NE8       29.89S
CLARINDA *     CLOUDY    50  46  87 NE8G15    29.87R
COUNCIL BLFS * CLOUDY    48  48 100 NE12      29.88R
CRESTON *      CLOUDY    46  45  93 NE16      29.85S
HARLAN  *      CLOUDY    48  48 100 NE10      29.91S
LAMONI         CLOUDY    48  43  82 NE14      29.84R
RED OAK *      CLOUDY    50  46  87 NE10      29.87R
SHENANDOAH *   CLOUDY    50  46  87 NE10      29.87R
$$

IAZ047>049-059>061-072>074-084-260500-
   CENTRAL IOWA

CITY           SKY/WX    TMP DP  RH WIND       PRES   REMARKS
AMES           CLOUDY    47  39  74 NE5       29.90R
ANKENY *       CLOUDY    48  41  76 NE6       29.89R
CHARITON *     CLOUDY    48  43  81 NE8       29.86R
DES MOINES     CLOUDY    49  39  68 NE13      29.89R
GRINNELL*      CLOUDY    46  39  76 NE9       29.90R
KNOXVILLE *    CLOUDY    46  41  81 NE12      29.86R
MARSHALLTOWN   CLOUDY    47  40  76 NE8       29.90R
PELLA *        CLOUDY    46  43  87 E7        29.89R
PERRY *        CLOUDY    48  40  73 E10       29.89S
$$

IAZ004>006-015-016-023>025-035-036-260500-
   NORTH CENTRAL IOWA

CITY           SKY/WX    TMP DP  RH WIND       PRES   REMARKS
ALGONA *       CLEAR     43  41  93 N5        29.94R
CLARION *      CLOUDY    43  41  93 N6        29.92R
ESTHERVILLE    PTCLDY    38  35  89 NE6       29.93R WCI  33
FORT DODGE *   PTCLDY    45  37  76 NE6       29.92S
MASON CITY     CLEAR     37  33  85 N5        29.94R WCI  33
FOREST CITY *  CLEAR     36  36 100 CALM      29.93R
IOWA FALLS *   CLOUDY    46  39  76 NE5       29.92R
$$

IAZ007>011-017>019-026>030-037>042-050>054-066-260500-
   NORTHEAST IOWA

CITY           SKY/WX    TMP DP  RH WIND       PRES   REMARKS
CEDAR RAPIDS   CLOUDY    46  39  76 NE10      29.88R
CHARLES CITY * CLEAR     45  37  76 CALM      29.93R
CLINTON *      PTCLDY    43  34  70 NE9       29.90R
DECORAH *      CLEAR     43  34  70 CALM      29.91R
DUBUQUE        MOCLDY    44  34  67 NE10      29.89R
MONTICELLO *   CLOUDY    45  39  81 CALM      29.89R
OELWEIN *      MOCLDY    43  36  75 N5        29.91R
WATERLOO       CLOUDY    44  39  82 N5        29.91R
$$

IAZ064-065-067-068-078-260500-
   EAST CENTRAL IOWA

CITY           SKY/WX    TMP DP  RH WIND       PRES   REMARKS
DAVENPORT      CLOUDY    44  36  73 NE10      29.87R
IOWA CITY      CLOUDY    47  37  68 NE12      29.89R
MT. PLEASANT * CLOUDY    45  41  87 NE13G20   29.86R
MUSCATINE *    CLOUDY    46  37  71 NE10G20   29.88R
QUAD CITIES    CLOUDY    45  36  70 NE13      29.86R
$$

IAZ062-063-075>077-085>089-095>099-260500-
   SOUTHEAST IOWA

CITY           SKY/WX    TMP DP  RH WIND       PRES   REMARKS
BURLINGTON     CLOUDY    47  41  80 NE16G23   29.84R
FAIRFIELD *    CLOUDY    46  39  76 NE13      29.87R
FORT MADISON * CLOUDY    46  43  87 NE13      29.84R
KEOKUK *       CLOUDY    48  43  81 NE15G22   29.82R
OSKALOOSA *    CLOUDY    45  39  81 NE12      29.87S
CENTERVILLE *  CLOUDY    46  45  93 NE16G24   29.85R
OTTUMWA        MOCLDY    46  40  79 NE9       29.86R
WASHINGTON *   CLOUDY    46  46 100 NE10      29.87R
$$

ABBREVIATIONS USED IN REMARKS
   TC - TEMPERATURES IN CELSIUS
  WCI - WIND CHILL INDEX
   HX - HEAT INDEX
  VSB - VISIBILITY
$$



USA.gov is the U.S. government's official web portal to all federal, state and local government web resources and services.